QPF
0.02 0.02 0.02 0.01 0.01 0.01 0.01 0.01 0.01 0.01 0.01 0.01 0.02 0.02 0.02 0.02 0.03 0.03 0.03 0.04 0.04 0.04 0.03 0.04 0.04 0.03 0.04 0.04 0.04 0.04 0.04 0.03 0.03 0.02 0.01 0.02 0.02 0.02 0.02 0.02 0.02 0.02 0.01
0.02 0.03 0.03 0.02 0.02 0.01 0.01 0.01 0.01 0.01 0.01 0.01 0.01 0.01 0.01 0.01 0.02 0.02 0.02 0.03 0.03 0.03 0.03 0.03 0.03 0.03 0.03 0.03 0.03 0.03 0.03 0.03 0.02 0.02 0.01 0.01 0.02 0.03 0.03 0.02 0.02 0.02 0.01
0.01 0.02 0.03 0.03 0.03 0.02 0.01 0.01 0.01 0.01 0.01 0.01 0.01 0.01 0.01 0.01 0.01 0.01 0.02 0.02 0.02 0.02 0.02 0.02 0.03 0.03 0.03 0.03 0.03 0.02 0.02 0.03 0.03 0.02 0.01 0.01 0.02 0.02 0.03 0.03 0.03 0.03 0.03
0.01 0.01 0.01 0.02 0.04 0.04 0.03 0.02 0.01 0.01 0.01 0.01 0.01 0.01 0.01 0.01 0.01 0.01 0.01 0.01 0.01 0.01 0.02 0.02 0.02 0.02 0.02 0.02 0.03 0.03 0.03 0.03 0.03 0.03 0.02 0.02 0.02 0.02 0.02 0.03 0.04 0.04 0.03
0.00 0.01 0.01 0.01 0.02 0.03 0.04 0.05 0.04 0.02 0.01 0.01 0.01 0.01 0.01 0.01 0.01 0.01 0.01 0.01 0.01 0.01 0.01 0.02 0.01 0.02 0.02 0.02 0.02 0.02 0.03 0.03 0.04 0.04 0.04 0.03 0.03 0.03 0.02 0.02 0.02 0.03 0.03
0.00 0.01 0.01 0.01 0.01 0.01 0.03 0.04 0.05 0.05 0.04 0.02 0.01 0.01 0.01 0.01 0.02 0.02 0.02 0.01 0.01 0.01 0.01 0.01 0.01 0.02 0.02 0.02 0.02 0.02 0.03 0.03 0.04 0.04 0.04 0.04 0.04 0.04 0.03 0.03 0.03 0.03 0.04
0.00 0.00 0.00 0.01 0.01 0.01 0.01 0.02 0.03 0.04 0.05 0.04 0.03 0.02 0.02 0.02 0.02 0.02 0.02 0.02 0.02 0.02 0.02 0.02 0.02 0.02 0.02 0.02 0.03 0.04 0.04 0.04 0.04 0.04 0.04 0.04 0.04 0.04 0.04 0.05 0.04 0.04 0.03
0.00 0.00 0.00 0.00 0.00 0.00 0.00 0.01 0.02 0.03 0.04 0.05 0.04 0.03 0.02 0.02 0.02 0.02 0.02 0.02 0.02 0.02 0.02 0.02 0.03 0.03 0.03 0.03 0.04 0.05 0.05 0.05 0.04 0.04 0.03 0.03 0.03 0.03 0.04 0.05 0.05 0.06 0.06
0.00 0.00 0.00 0.00 0.00 0.00 0.00 0.00 0.01 0.01 0.02 0.03 0.05 0.06 0.05 0.04 0.03 0.02 0.02 0.02 0.03 0.03 0.03 0.03 0.03 0.03 0.03 0.04 0.04 0.04 0.04 0.04 0.04 0.04 0.03 0.03 0.03 0.03 0.03 0.05 0.05 0.06 0.05
0.00 0.00 0.00 0.00 0.00 0.00 0.00 0.00 0.00 0.00 0.00 0.01 0.02 0.03 0.04 0.06 0.06 0.04 0.03 0.03 0.04 0.04 0.04 0.03 0.03 0.03 0.03 0.03 0.03 0.03 0.04 0.03 0.03 0.04 0.04 0.04 0.03 0.03 0.03 0.03 0.03 0.04 0.04
0.00 0.00 0.00 0.00 0.00 0.00 0.00 0.00 0.00 0.00 0.00 0.01 0.01 0.01 0.02 0.03 0.04 0.05 0.05 0.04 0.04 0.04 0.04 0.04 0.03 0.04 0.03 0.03 0.03 0.03 0.03 0.02 0.02 0.03 0.03 0.04 0.04 0.04 0.03 0.03 0.02 0.03 0.03
0.00 0.00 0.00 0.00 0.00 0.00 0.00 0.00 0.00 0.00 0.00 0.00 0.01 0.01 0.01 0.02 0.02 0.03 0.03 0.04 0.05 0.05 0.04 0.03 0.03 0.04 0.04 0.04 0.04 0.04 0.04 0.03 0.03 0.03 0.03 0.03 0.03 0.03 0.03 0.02 0.02 0.02 0.02
0.00 0.00 0.00 0.00 0.00 0.00 0.00 0.00 0.00 0.01 0.01 0.01 0.01 0.01 0.01 0.01 0.02 0.02 0.02 0.02 0.03 0.03 0.03 0.03 0.04 0.04 0.04 0.04 0.04 0.04 0.05 0.05 0.04 0.03 0.03 0.02 0.02 0.01 0.01 0.02 0.02 0.02 0.02
0.00 0.00 0.00 0.00 0.01 0.01 0.01 0.01 0.01 0.01 0.01 0.01 0.01 0.01 0.01 0.01 0.01 0.01 0.02 0.02 0.03 0.03 0.03 0.03 0.03 0.04 0.04 0.03 0.03 0.03 0.03 0.04 0.03 0.02 0.02 0.02 0.02 0.02 0.02 0.02 0.02 0.02 0.03
0.00 0.00 0.00 0.00 0.01 0.01 0.01 0.01 0.01 0.01 0.01 0.01 0.01 0.01 0.01 0.01 0.01 0.02 0.02 0.02 0.02 0.03 0.03 0.03 0.03 0.03 0.03 0.03 0.03 0.02 0.02 0.03 0.03 0.02 0.02 0.02 0.02 0.02 0.02 0.02 0.02 0.02 0.03
0.00 0.00 0.01 0.01 0.01 0.01 0.01 0.01 0.01 0.01 0.01 0.01 0.01 0.02 0.02 0.02 0.02 0.02 0.02 0.02 0.02 0.03 0.03 0.03 0.02 0.02 0.02 0.02 0.02 0.02 0.02 0.02 0.02 0.02 0.02 0.02 0.02 0.02 0.02 0.02 0.02 0.03 0.03
0.00 0.00 0.01 0.01 0.01 0.01 0.01 0.01 0.01 0.01 0.01 0.01 0.01 0.01 0.01 0.02 0.02 0.02 0.02 0.03 0.03 0.03 0.03 0.02 0.01 0.01 0.01 0.01 0.01 0.01 0.01 0.02 0.02 0.02 0.02 0.02 0.02 0.02 0.02 0.02 0.02 0.03 0.03
0.01 0.01 0.01 0.01 0.01 0.01 0.01 0.01 0.01 0.01 0.01 0.01 0.01 0.01 0.01 0.02 0.02 0.02 0.02 0.03 0.03 0.03 0.02 0.01 0.01 0.01 0.01 0.01 0.01 0.01 0.01 0.01 0.02 0.02 0.02 0.02 0.02 0.02 0.02 0.02 0.02 0.03 0.03
0.01 0.01 0.01 0.01 0.01 0.01 0.01 0.01 0.01 0.01 0.01 0.01 0.01 0.01 0.01 0.02 0.02 0.02 0.02 0.02 0.02 0.02 0.01 0.01 0.01 0.01 0.01 0.01 0.01 0.01 0.01 0.01 0.01 0.02 0.02 0.02 0.02 0.02 0.02 0.02 0.02 0.03 0.03
0.01 0.01 0.01 0.01 0.01 0.01 0.01 0.01 0.01 0.01 0.01 0.01 0.01 0.01 0.01 0.02 0.02 0.02 0.02 0.02 0.02 0.01 0.01 0.01 0.01 0.01 0.01 0.01 0.02 0.02 0.02 0.02 0.02 0.02 0.02 0.02 0.02 0.02 0.02 0.02 0.03 0.03 0.03
0.01 0.01 0.01 0.01 0.01 0.01 0.01 0.01 0.01 0.01 0.01 0.01 0.01 0.01 0.02 0.02 0.02 0.02 0.02 0.02 0.01 0.02 0.02 0.02 0.02 0.02 0.02 0.02 0.02 0.02 0.02 0.02 0.02 0.02 0.02 0.02 0.02 0.02 0.02 0.02 0.03 0.03 0.03
0.01 0.01 0.01 0.01 0.01 0.01 0.01 0.01 0.01 0.01 0.01 0.01 0.02 0.02 0.02 0.02 0.02 0.02 0.02 0.01 0.01 0.02 0.02 0.02 0.02 0.02 0.02 0.02 0.02 0.02 0.02 0.02 0.02 0.02 0.02 0.02 0.02 0.02 0.02 0.02 0.03 0.03 0.03
0.01 0.01 0.01 0.01 0.01 0.01 0.01 0.01 0.02 0.02 0.02 0.02 0.02 0.03 0.03 0.02 0.02 0.02 0.02 0.02 0.02 0.02 0.02 0.02 0.02 0.02 0.02 0.02 0.02 0.02 0.02 0.02 0.02 0.02 0.02 0.02 0.02 0.02 0.02 0.02 0.02 0.02 0.02
0.01 0.01 0.01 0.02 0.02 0.02 0.01 0.01 0.02 0.02 0.02 0.02 0.03 0.03 0.02 0.02 0.02 0.02 0.02 0.02 0.02 0.02 0.01 0.01 0.01 0.01 0.02 0.02 0.02 0.02 0.02 0.02 0.03 0.03 0.02 0.02 0.02 0.02 0.02 0.02 0.02 0.02 0.02
0.01 0.01 0.01 0.02 0.02 0.02 0.02 0.02 0.02 0.02 0.02 0.02 0.02 0.02 0.02 0.02 0.02 0.02 0.02 0.02 0.01 0.01 0.01 0.01 0.01 0.01 0.02 0.02 0.02 0.02 0.02 0.02 0.03 0.03 0.03 0.03 0.02 0.02 0.02 0.02 0.02 0.02 0.02
0.01 0.01 0.02 0.02 0.02 0.02 0.02 0.02 0.02 0.02 0.02 0.02 0.02 0.02 0.02 0.02 0.02 0.02 0.02 0.02 0.01 0.01 0.01 0.01 0.01 0.02 0.02 0.02 0.02 0.02 0.02 0.02 0.02 0.02 0.03 0.03 0.02 0.02 0.02 0.02 0.02 0.02 0.02
MSLP
1033.28 1033.23 1033.14 1033.02 1032.88 1032.74 1032.62 1032.52 1032.44 1032.36 1032.28 1032.19 1032.09 1031.98 1031.87 1031.77 1031.69 1031.63 1031.58 1031.53 1031.46 1031.36 1031.20 1030.99 1030.71 1030.40 1030.07 1029.76 1029.49 1029.30 1029.19 1029.17 1029.20 1029.27 1029.33 1029.34 1029.29 1029.15 1028.93 1028.62 1028.26 1027.86 1027.45
1033.64 1033.63 1033.56 1033.46 1033.35 1033.23 1033.13 1033.04 1032.97 1032.90 1032.82 1032.74 1032.65 1032.54 1032.44 1032.35 1032.29 1032.25 1032.23 1032.22 1032.19 1032.13 1032.02 1031.84 1031.60 1031.31 1031.00 1030.69 1030.42 1030.22 1030.09 1030.02 1030.01 1030.02 1030.02 1029.98 1029.87 1029.67 1029.40 1029.06 1028.68 1028.28 1027.89
1033.87 1033.89 1033.86 1033.80 1033.72 1033.64 1033.57 1033.51 1033.46 1033.40 1033.33 1033.25 1033.15 1033.05 1032.94 1032.86 1032.80 1032.78 1032.78 1032.80 1032.81 1032.79 1032.72 1032.59 1032.39 1032.14 1031.86 1031.58 1031.32 1031.12 1030.98 1030.90 1030.86 1030.84 1030.79 1030.71 1030.55 1030.31 1030.00 1029.62 1029.22 1028.81 1028.41
1034.01 1034.06 1034.07 1034.05 1034.02 1033.99 1033.96 1033.93 1033.91 1033.87 1033.81 1033.72 1033.62 1033.50 1033.39 1033.30 1033.24 1033.23 1033.25 1033.29 1033.33 1033.35 1033.32 1033.23 1033.08 1032.87 1032.63 1032.38 1032.16 1031.98 1031.85 1031.77 1031.73 1031.69 1031.63 1031.52 1031.34 1031.07 1030.74 1030.34 1029.91 1029.49 1029.08
1034.11 1034.19 1034.23 1034.25 1034.27 1034.28 1034.30 1034.31 1034.32 1034.30 1034.25 1034.17 1034.06 1033.93 1033.81 1033.71 1033.64 1033.63 1033.66 1033.71 1033.78 1033.82 1033.83 1033.78 1033.67 1033.50 1033.31 1033.10 1032.92 1032.77 1032.67 1032.61 1032.58 1032.56 1032.51 1032.40 1032.22 1031.96 1031.62 1031.22 1030.79 1030.35 1029.93
1034.21 1034.31 1034.38 1034.43 1034.49 1034.55 1034.61 1034.67 1034.70 1034.71 1034.67 1034.59 1034.47 1034.34 1034.20 1034.09 1034.02 1033.99 1034.02 1034.08 1034.16 1034.23 1034.26 1034.24 1034.17 1034.05 1033.89 1033.74 1033.60 1033.49 1033.43 1033.41 1033.42 1033.43 1033.40 1033.33 1033.18 1032.94 1032.63 1032.25 1031.83 1031.38 1030.94
1034.33 1034.44 1034.52 1034.60 1034.69 1034.79 1034.89 1034.99 1035.06 1035.08 1035.06 1034.99 1034.87 1034.72 1034.58 1034.45 1034.37 1034.34 1034.36 1034.42 1034.50 1034.57 1034.62 1034.63 1034.59 1034.51 1034.40 1034.29 1034.20 1034.15 1034.13 1034.16 1034.21 1034.26 1034.29 1034.26 1034.15 1033.97 1033.70 1033.36 1032.97 1032.54 1032.10
1034.47 1034.58 1034.67 1034.77 1034.88 1035.00 1035.14 1035.26 1035.35 1035.40 1035.40 1035.33 1035.22 1035.07 1034.92 1034.79 1034.69 1034.65 1034.66 1034.71 1034.79 1034.87 1034.93 1034.96 1034.95 1034.91 1034.85 1034.79 1034.75 1034.74 1034.77 1034.85 1034.94 1035.04 1035.11 1035.13 1035.09 1034.96 1034.75 1034.47 1034.12 1033.73 1033.31
1034.59 1034.69 1034.79 1034.89 1035.01 1035.16 1035.31 1035.46 1035.57 1035.64 1035.65 1035.60 1035.49 1035.34 1035.19 1035.05 1034.95 1034.90 1034.90 1034.95 1035.02 1035.10 1035.18 1035.23 1035.25 1035.25 1035.23 1035.22 1035.23 1035.27 1035.35 1035.46 1035.60 1035.73 1035.84 1035.91 1035.91 1035.84 1035.69 1035.47 1035.18 1034.85 1034.46
1034.67 1034.77 1034.85 1034.96 1035.09 1035.24 1035.41 1035.56 1035.69 1035.77 1035.78 1035.74 1035.64 1035.50 1035.35 1035.21 1035.10 1035.04 1035.04 1035.07 1035.15 1035.23 1035.32 1035.40 1035.46 1035.50 1035.53 1035.58 1035.64 1035.73 1035.85 1035.99 1036.15 1036.31 1036.44 1036.53 1036.57 1036.54 1036.44 1036.28 1036.06 1035.79 1035.47
1034.71 1034.79 1034.87 1034.97 1035.09 1035.24 1035.40 1035.56 1035.68 1035.76 1035.78 1035.74 1035.64 1035.50 1035.35 1035.21 1035.10 1035.04 1035.02 1035.05 1035.12 1035.22 1035.32 1035.43 1035.53 1035.62 1035.71 1035.81 1035.93 1036.07 1036.23 1036.41 1036.58 1036.75 1036.89 1036.99 1037.04 1037.03 1036.97 1036.86 1036.70 1036.49 1036.25
1034.73 1034.79 1034.86 1034.94 1035.05 1035.18 1035.33 1035.47 1035.58 1035.64 1035.65 1035.60 1035.49 1035.35 1035.19 1035.05 1034.93 1034.85 1034.82 1034.85 1034.91 1035.01 1035.13 1035.27 1035.41 1035.55 1035.71 1035.88 1036.06 1036.25 1036.46 1036.67 1036.87 1037.04 1037.18 1037.27 1037.32 1037.32 1037.27 1037.19 1037.08 1036.94 1036.77
1034.80 1034.83 1034.86 1034.92 1035.00 1035.10 1035.22 1035.33 1035.41 1035.44 1035.42 1035.35 1035.22 1035.06 1034.89 1034.72 1034.58 1034.48 1034.44 1034.44 1034.49 1034.59 1034.72 1034.88 1035.06 1035.26 1035.48 1035.72 1035.97 1036.23 1036.50 1036.75 1036.97 1037.16 1037.30 1037.39 1037.43 1037.42 1037.38 1037.32 1037.25 1037.17 1037.07
1034.97 1034.96 1034.96 1034.97 1035.01 1035.07 1035.14 1035.20 1035.23 1035.22 1035.16 1035.05 1034.89 1034.69 1034.49 1034.29 1034.11 1033.97 1033.89 1033.85 1033.88 1033.95 1034.08 1034.24 1034.45 1034.70 1034.98 1035.29 1035.62 1035.97 1036.30 1036.61 1036.88 1037.11 1037.27 1037.36 1037.40 1037.40 1037.37 1037.33 1037.29 1037.25 1037.21
1035.30 1035.24 1035.18 1035.15 1035.14 1035.14 1035.15 1035.15 1035.13 1035.06 1034.95 1034.78 1034.57 1034.33 1034.07 1033.81 1033.58 1033.39 1033.24 1033.15 1033.11 1033.14 1033.23 1033.39 1033.61 1033.88 1034.21 1034.59 1035.00 1035.43 1035.85 1036.25 1036.60 1036.88 1037.09 1037.23 1037.30 1037.32 1037.31 1037.28 1037.27 1037.26 1037.27
1035.80 1035.68 1035.57 1035.48 1035.41 1035.35 1035.30 1035.24 1035.15 1035.02 1034.84 1034.61 1034.34 1034.04 1033.72 1033.39 1033.09 1032.81 1032.58 1032.40 1032.29 1032.24 1032.27 1032.38 1032.57 1032.85 1033.21 1033.64 1034.13 1034.64 1035.16 1035.66 1036.11 1036.49 1036.79 1037.00 1037.13 1037.20 1037.23 1037.24 1037.26 1037.29 1037.33
1036.44 1036.26 1036.09 1035.94 1035.81 1035.70 1035.59 1035.47 1035.32 1035.12 1034.88 1034.60 1034.26 1033.89 1033.50 1033.10 1032.71 1032.34 1032.00 1031.72 1031.50 1031.35 1031.28 1031.32 1031.46 1031.71 1032.06 1032.52 1033.06 1033.65 1034.27 1034.87 1035.44 1035.94 1036.36 1036.68 1036.90 1037.06 1037.16 1037.23 1037.29 1037.35 1037.42
1037.12 1036.89 1036.67 1036.48 1036.30 1036.15 1035.99 1035.82 1035.62 1035.37 1035.08 1034.74 1034.35 1033.92 1033.46 1032.98 1032.50 1032.03 1031.59 1031.19 1030.84 1030.57 1030.39 1030.32 1030.37 1030.56 1030.88 1031.33 1031.89 1032.54 1033.23 1033.94 1034.63 1035.26 1035.80 1036.25 1036.61 1036.87 1037.06 1037.21 1037.32 1037.43 1037.53
1037.74 1037.48 1037.23 1037.01 1036.82 1036.63 1036.45 1036.25 1036.01 1035.73 1035.40 1035.02 1034.58 1034.10 1033.59 1033.04 1032.49 1031.93 1031.38 1030.86 1030.39 1029.99 1029.68 1029.49 1029.43 1029.53 1029.78 1030.19 1030.74 1031.41 1032.15 1032.94 1033.72 1034.47 1035.14 1035.72 1036.21 1036.59 1036.90 1037.13 1037.32 1037.47 1037.61
1038.21 1037.94 1037.70 1037.48 1037.29 1037.10 1036.90 1036.68 1036.43 1036.13 1035.78 1035.37 1034.91 1034.40 1033.84 1033.25 1032.64 1032.01 1031.38 1030.76 1030.18 1029.66 1029.23 1028.92 1028.74 1028.73 1028.88 1029.22 1029.72 1030.36 1031.12 1031.94 1032.78 1033.62 1034.39 1035.09 1035.69 1036.20 1036.61 1036.94 1037.20 1037.42 1037.59
1038.48 1038.24 1038.03 1037.84 1037.66 1037.49 1037.29 1037.08 1036.81 1036.51 1036.14 1035.73 1035.25 1034.73 1034.16 1033.55 1032.90 1032.23 1031.55 1030.87 1030.22 1029.61 1029.07 1028.65 1028.36 1028.23 1028.27 1028.51 1028.93 1029.51 1030.23 1031.03 1031.89 1032.76 1033.60 1034.38 1035.07 1035.67 1036.18 1036.59 1036.94 1037.21 1037.44
1038.55 1038.38 1038.22 1038.07 1037.93 1037.77 1037.59 1037.38 1037.12 1036.80 1036.44 1036.02 1035.54 1035.03 1034.46 1033.86 1033.22 1032.55 1031.85 1031.15 1030.46 1029.80 1029.20 1028.69 1028.30 1028.07 1028.01 1028.13 1028.44 1028.93 1029.56 1030.31 1031.13 1031.99 1032.83 1033.64 1034.39 1035.05 1035.62 1036.11 1036.52 1036.85 1037.13
1038.49 1038.39 1038.30 1038.20 1038.09 1037.96 1037.79 1037.57 1037.31 1036.99 1036.62 1036.20 1035.73 1035.23 1034.69 1034.12 1033.51 1032.87 1032.21 1031.53 1030.84 1030.18 1029.55 1029.00 1028.55 1028.24 1028.07 1028.09 1028.29 1028.65 1029.17 1029.82 1030.55 1031.35 1032.15 1032.95 1033.69 1034.38 1034.99 1035.52 1035.98 1036.37 1036.69
1038.39 1038.36 1038.33 1038.27 1038.19 1038.06 1037.89 1037.66 1037.38 1037.05 1036.66 1036.25 1035.79 1035.31 1034.81 1034.28 1033.73 1033.15 1032.55 1031.93 1031.29 1030.66 1030.05 1029.49 1029.02 1028.65 1028.41 1028.33 1028.41 1028.65 1029.04 1029.56 1030.19 1030.88 1031.61 1032.34 1033.06 1033.73 1034.35 1034.91 1035.40 1035.82 1036.18
1038.31 1038.35 1038.35 1038.32 1038.25 1038.11 1037.91 1037.66 1037.35 1036.99 1036.59 1036.17 1035.73 1035.27 1034.81 1034.34 1033.85 1033.35 1032.82 1032.27 1031.71 1031.14 1030.58 1030.05 1029.57 1029.18 1028.89 1028.73 1028.71 1028.84 1029.10 1029.49 1029.99 1030.56 1031.19 1031.84 1032.50 1033.14 1033.74 1034.30 1034.81 1035.26 1035.65
1038.30 1038.37 1038.39 1038.36 1038.26 1038.10 1037.87 1037.57 1037.23 1036.84 1036.42 1035.99 1035.56 1035.12 1034.70 1034.28 1033.85 1033.42 1032.98 1032.51 1032.03 1031.53 1031.02 1030.54 1030.08 1029.68 1029.37 1029.15 1029.05 1029.08 1029.23 1029.49 1029.86 1030.32 1030.84 1031.41 1031.99 1032.58 1033.16 1033.71 1034.22 1034.69 1035.11
Thickness
5440 5439 5439 5439 5439 5439 5439 5439 5439 5439 5439 5440 5440 5440 5441 5442 5442 5443 5444 5445 5447 5448 5449 5451 5452 5452 5453 5454 5454 5455 5456 5457 5458 5458 5455 5453 5452 5451 5451 5450 5450 5450 5450
5427 5426 5426 5426 5426 5426 5426 5426 5426 5427 5427 5427 5427 5427 5428 5429 5430 5431 5432 5433 5434 5436 5437 5438 5439 5439 5440 5440 5441 5442 5442 5443 5444 5445 5443 5440 5439 5438 5437 5437 5437 5437 5437
5414 5414 5414 5413 5413 5413 5413 5413 5413 5413 5414 5414 5414 5415 5415 5415 5416 5417 5418 5420 5421 5422 5424 5425 5426 5426 5427 5427 5427 5427 5428 5428 5429 5430 5430 5428 5426 5424 5424 5423 5423 5423 5423
5401 5401 5401 5400 5400 5399 5399 5399 5399 5400 5400 5401 5401 5401 5401 5402 5402 5403 5405 5406 5407 5408 5409 5410 5411 5411 5413 5413 5413 5413 5413 5413 5413 5413 5414 5414 5413 5411 5410 5410 5410 5410 5410
5389 5389 5388 5387 5386 5386 5385 5385 5385 5386 5386 5387 5387 5388 5388 5388 5389 5390 5390 5391 5392 5393 5394 5394 5395 5396 5397 5397 5399 5400 5399 5399 5399 5399 5399 5399 5399 5398 5397 5396 5394 5395 5396
5377 5376 5375 5374 5373 5372 5371 5371 5371 5371 5372 5373 5373 5374 5374 5375 5375 5375 5376 5377 5378 5379 5379 5379 5380 5381 5382 5382 5383 5384 5385 5385 5385 5386 5386 5386 5386 5385 5383 5381 5380 5380 5382
5365 5363 5361 5360 5359 5358 5357 5357 5356 5357 5357 5358 5359 5359 5361 5361 5361 5361 5361 5362 5363 5364 5365 5365 5366 5366 5367 5368 5369 5369 5370 5369 5370 5371 5372 5373 5372 5372 5369 5368 5367 5367 5368
5353 5351 5349 5347 5346 5344 5344 5343 5343 5343 5343 5344 5345 5345 5346 5347 5347 5347 5347 5348 5349 5350 5350 5351 5352 5353 5353 5354 5355 5356 5356 5356 5356 5356 5358 5358 5357 5355 5354 5353 5352 5350 5351
5341 5339 5337 5334 5333 5332 5331 5331 5330 5329 5330 5330 5330 5331 5331 5332 5332 5333 5332 5333 5334 5335 5336 5337 5338 5339 5340 5340 5341 5342 5343 5343 5342 5341 5342 5342 5342 5341 5339 5337 5336 5336 5338
5329 5327 5324 5322 5321 5320 5319 5317 5316 5315 5316 5315 5315 5316 5316 5317 5317 5318 5318 5319 5321 5322 5323 5323 5324 5326 5326 5326 5327 5329 5330 5331 5329 5329 5328 5328 5327 5326 5325 5324 5323 5323 5324
5316 5313 5312 5310 5308 5307 5306 5304 5303 5302 5301 5301 5301 5302 5302 5303 5304 5304 5304 5305 5307 5308 5309 5310 5311 5312 5313 5314 5315 5316 5317 5316 5315 5315 5315 5314 5313 5312 5311 5309 5308 5309 5310
5302 5301 5299 5297 5296 5294 5293 5291 5289 5288 5287 5287 5287 5288 5288 5288 5289 5290 5291 5291 5292 5294 5296 5297 5299 5299 5301 5302 5302 5303 5302 5301 5301 5301 5301 5301 5301 5300 5298 5296 5294 5294 5295
5289 5287 5286 5284 5283 5281 5280 5279 5277 5276 5275 5275 5274 5275 5276 5275 5276 5277 5278 5279 5280 5280 5282 5284 5285 5286 5287 5289 5289 5289 5288 5288 5288 5288 5289 5288 5287 5286 5284 5283 5282 5281 5282
5276 5275 5273 5272 5271 5269 5267 5267 5266 5264 5264 5263 5262 5263 5264 5264 5264 5266 5266 5267 5268 5269 5270 5271 5272 5273 5274 5275 5276 5275 5275 5275 5275 5275 5275 5274 5273 5272 5271 5271 5271 5270 5270
5263 5262 5260 5259 5258 5257 5256 5255 5254 5254 5252 5252 5252 5251 5252 5255 5256 5255 5256 5257 5258 5259 5258 5259 5260 5261 5262 5262 5262 5262 5262 5262 5262 5262 5262 5261 5261 5260 5260 5259 5258 5258 5259
5250 5249 5248 5247 5246 5245 5244 5243 5242 5241 5241 5240 5240 5240 5241 5243 5244 5245 5245 5246 5246 5246 5247 5248 5249 5249 5250 5251 5251 5251 5250 5250 5250 5250 5249 5249 5249 5248 5248 5247 5247 5248 5249
5237 5237 5236 5235 5234 5233 5232 5232 5232 5232 5230 5230 5230 5230 5230 5232 5233 5234 5234 5235 5235 5235 5235 5237 5238 5238 5239 5238 5238 5239 5239 5238 5237 5237 5237 5237 5237 5236 5236 5235 5235 5236 5237
5224 5224 5223 5222 5222 5221 5220 5219 5219 5220 5220 5221 5220 5220 5221 5221 5222 5222 5222 5223 5223 5223 5225 5226 5227 5228 5228 5227 5227 5227 5228 5227 5226 5225 5225 5225 5224 5224 5223 5224 5224 5224 5224
5212 5212 5211 5210 5210 5209 5209 5208 5207 5207 5208 5209 5210 5210 5210 5210 5211 5211 5211 5211 5213 5214 5214 5215 5216 5216 5216 5216 5216 5216 5217 5217 5216 5215 5214 5213 5212 5211 5211 5211 5211 5211 5211
5201 5200 5199 5199 5199 5198 5198 5197 5197 5196 5197 5198 5199 5200 5200 5199 5201 5202 5201 5201 5202 5203 5204 5204 5205 5205 5206 5205 5205 5205 5206 5206 5205 5204 5203 5202 5201 5200 5200 5200 5200 5200 5201
5191 5190 5188 5187 5187 5187 5186 5186 5186 5186 5187 5188 5189 5190 5190 5191 5192 5192 5192 5191 5192 5193 5193 5194 5194 5195 5195 5195 5195 5195 5195 5195 5195 5193 5192 5191 5190 5189 5189 5189 5189 5189 5189
5180 5180 5179 5178 5177 5176 5176 5176 5176 5176 5177 5178 5179 5179 5179 5180 5181 5181 5181 5182 5182 5182 5183 5184 5185 5186 5186 5186 5186 5186 5186 5186 5185 5183 5182 5181 5180 5179 5179 5179 5179 5179 5179
5170 5169 5168 5167 5166 5165 5165 5166 5166 5166 5167 5168 5168 5169 5169 5169 5170 5171 5171 5171 5171 5171 5172 5173 5175 5176 5177 5177 5177 5177 5177 5177 5176 5175 5173 5172 5171 5171 5170 5170 5170 5170 5170
5159 5159 5158 5158 5157 5156 5157 5157 5157 5157 5157 5158 5158 5159 5159 5159 5160 5160 5160 5161 5161 5161 5162 5163 5165 5167 5168 5168 5168 5168 5168 5168 5167 5166 5165 5164 5163 5162 5162 5162 5162 5162 5162
5149 5149 5148 5148 5147 5147 5147 5148 5148 5148 5148 5148 5148 5148 5149 5149 5149 5149 5150 5150 5151 5151 5152 5154 5155 5157 5158 5159 5159 5159 5159 5159 5159 5158 5157 5156 5155 5155 5154 5154 5154 5153 5153
5140 5139 5139 5138 5138 5138 5138 5138 5138 5138 5138 5138 5138 5139 5138 5138 5139 5139 5140 5140 5141 5142 5143 5145 5146 5147 5149 5150 5150 5150 5151 5151 5151 5150 5149 5149 5148 5147 5146 5146 5146 5145 5145